AEE7309 LGAV-LTFM

Flight info

Callsign AEE7309
Flight time 0h 37m
Altitude 38000
Route LGAV/03R N0441F380 KRO2E KRO UN604 INBET INBE1C LTFM/35R
Aircraft A20N/M-SDE2E3FGHIJ1RWXY/LB1

Departure

Time 2026-05-06 11:36
Airport Athens Eleftherios Venizelos International Airport (LGAV)

Arrival

Time 2026-05-06 12:13
Airport İstanbul Airport (LTFM)
Time Latitude Longitude Altitude Speed Heading
2026-05-06 11:20 37.93327 23.94587 285 ft 0 kts 311°
2026-05-06 11:29 37.93320 23.94599 312 ft 2 kts 303°
2026-05-06 11:29 37.93311 23.94616 301 ft 2 kts 295°
2026-05-06 11:29 37.93305 23.94636 285 ft 2 kts 281°
2026-05-06 11:29 37.93304 23.94656 285 ft 2 kts 264°
2026-05-06 11:30 37.93307 23.94677 285 ft 2 kts 245°
2026-05-06 11:30 37.93315 23.94694 288 ft 2 kts 231°
2026-05-06 11:30 37.93325 23.94708 289 ft 1 kts 220°
2026-05-06 11:30 37.93327 23.94710 289 ft 1 kts 218°
2026-05-06 11:31 37.93328 23.94710 289 ft 0 kts 217°
2026-05-06 11:31 37.93319 23.94702 286 ft 3 kts 217°
2026-05-06 11:32 37.93293 23.94677 292 ft 6 kts 217°
2026-05-06 11:32 37.93249 23.94634 285 ft 9 kts 217°
2026-05-06 11:32 37.93181 23.94601 286 ft 12 kts 191°
2026-05-06 11:32 37.93098 23.94614 287 ft 13 kts 152°
2026-05-06 11:33 37.93021 23.94664 287 ft 13 kts 194°
2026-05-06 11:33 37.92941 23.94603 289 ft 15 kts 216°
2026-05-06 11:33 37.92853 23.94523 290 ft 16 kts 216°
2026-05-06 11:33 37.92759 23.94431 295 ft 18 kts 218°
2026-05-06 11:34 37.92653 23.94330 293 ft 20 kts 216°
2026-05-06 11:34 37.92538 23.94338 293 ft 19 kts 132°
2026-05-06 11:34 37.92516 23.94480 295 ft 18 kts 49°
2026-05-06 11:34 37.92548 23.94509 294 ft 0 kts 33°
2026-05-06 11:35 37.92598 23.94556 291 ft 41 kts 37°
2026-05-06 11:35 37.93069 23.95007 289 ft 125 kts 37°
2026-05-06 11:35 37.93933 23.95809 452 ft 173 kts 38°
2026-05-06 11:35 37.94989 23.96779 892 ft 208 kts 38°
2026-05-06 11:36 37.96186 23.97909 1791 ft 214 kts 39°
2026-05-06 11:36 37.97390 23.99104 2768 ft 229 kts 39°
2026-05-06 11:36 37.98701 24.00399 3467 ft 248 kts 38°
2026-05-06 11:36 38.00084 24.01747 4437 ft 254 kts 36°
2026-05-06 11:37 38.01499 24.03114 5382 ft 258 kts 35°
2026-05-06 11:37 38.02931 24.04493 6530 ft 255 kts 35°
2026-05-06 11:37 38.04299 24.05813 8016 ft 239 kts 36°
2026-05-06 11:37 38.05622 24.07087 9230 ft 240 kts 35°
2026-05-06 11:38 38.06958 24.08371 10275 ft 242 kts 35°
2026-05-06 11:38 38.08253 24.09768 11179 ft 249 kts 48°
2026-05-06 11:38 38.09064 24.11738 12043 ft 259 kts 74°
2026-05-06 11:38 38.09110 24.14049 12901 ft 269 kts 101°
2026-05-06 11:39 38.08511 24.16336 13749 ft 276 kts 108°
2026-05-06 11:39 38.07853 24.18645 14540 ft 281 kts 108°
2026-05-06 11:39 38.07192 24.21003 15287 ft 286 kts 107°
2026-05-06 11:39 38.06528 24.23414 16030 ft 292 kts 107°
2026-05-06 11:40 38.05691 24.26482 16953 ft 299 kts 107°
2026-05-06 11:40 38.01328 24.42434 21100 ft 324 kts 106°
2026-05-06 11:40 37.99823 24.51821 22835 ft 322 kts 70°
2026-05-06 11:40 38.00713 24.54343 23428 ft 310 kts 46°
2026-05-06 11:41 38.02249 24.56203 23858 ft 305 kts 29°
2026-05-06 11:41 38.03973 24.57766 24383 ft 305 kts 30°
2026-05-06 11:41 38.05611 24.59455 24834 ft 312 kts 36°
2026-05-06 11:41 38.07190 24.61403 25136 ft 324 kts 40°
2026-05-06 11:42 38.08743 24.63575 25255 ft 340 kts 43°
2026-05-06 11:42 38.21836 24.83581 26539 ft 429 kts 45°
2026-05-06 11:42 38.37342 25.07477 29807 ft 447 kts 45°
2026-05-06 11:42 38.53445 25.32383 32613 ft 456 kts 45°
2026-05-06 11:43 38.69410 25.57287 35366 ft 449 kts 44°
2026-05-06 11:43 38.80513 25.74724 36813 ft 447 kts 44°
2026-05-06 11:43 38.88347 25.87074 37742 ft 445 kts 44°
2026-05-06 11:44 39.03869 26.11699 38093 ft 442 kts 44°
2026-05-06 11:44 39.11572 26.23991 38094 ft 442 kts 44°
2026-05-06 11:44 39.28421 26.46393 38082 ft 425 kts 24°
2026-05-06 11:45 39.38805 26.54940 38076 ft 428 kts 28°
2026-05-06 11:45 39.43720 26.59333 38089 ft 433 kts 28°
2026-05-06 11:46 39.48672 26.63774 38086 ft 432 kts 29°
2026-05-06 11:46 39.53608 26.68217 38082 ft 432 kts 29°
2026-05-06 11:47 39.58549 26.72671 38078 ft 433 kts 29°
2026-05-06 11:47 39.63498 26.77137 38083 ft 433 kts 29°
2026-05-06 11:48 39.68436 26.81603 37960 ft 433 kts 29°
2026-05-06 11:48 39.70903 26.83836 37678 ft 432 kts 29°
2026-05-06 11:48 39.73370 26.86065 37423 ft 432 kts 29°
2026-05-06 11:49 39.75828 26.88297 37172 ft 431 kts 29°
2026-05-06 11:49 39.78287 26.90531 36916 ft 431 kts 29°
2026-05-06 11:49 39.80743 26.92768 36660 ft 431 kts 30°
2026-05-06 11:49 39.83194 26.95001 36406 ft 430 kts 29°
2026-05-06 11:50 39.85643 26.97234 36145 ft 430 kts 29°
2026-05-06 11:50 39.88092 26.99467 35895 ft 430 kts 29°
2026-05-06 11:50 39.90536 27.01697 35640 ft 428 kts 29°
2026-05-06 11:50 39.92973 27.03924 35388 ft 428 kts 29°
2026-05-06 11:51 39.95422 27.06159 34880 ft 430 kts 30°
2026-05-06 11:51 39.97878 27.08406 33945 ft 431 kts 30°
2026-05-06 11:51 40.00276 27.10605 33237 ft 423 kts 30°
2026-05-06 11:51 40.02658 27.12794 32496 ft 415 kts 30°
2026-05-06 11:52 40.05006 27.14950 31754 ft 411 kts 30°
2026-05-06 11:52 40.07335 27.17088 30998 ft 408 kts 30°
2026-05-06 11:52 40.09651 27.19214 30180 ft 407 kts 30°
2026-05-06 11:52 40.12011 27.21375 29630 ft 424 kts 30°
2026-05-06 11:53 40.14464 27.23626 29161 ft 437 kts 30°
2026-05-06 11:53 40.17023 27.25688 28583 ft 426 kts 21°
2026-05-06 11:53 40.19732 27.27052 28027 ft 409 kts 11°
2026-05-06 11:53 40.22468 27.27737 27487 ft 392 kts
2026-05-06 11:54 40.25138 27.27930 26981 ft 378 kts 359°
2026-05-06 11:54 40.27734 27.28103 26488 ft 371 kts 360°
2026-05-06 11:54 40.30298 27.28283 25991 ft 367 kts 360°
2026-05-06 11:54 40.32837 27.28460 25501 ft 363 kts 360°
2026-05-06 11:55 40.35350 27.28635 25015 ft 360 kts 360°
2026-05-06 11:55 40.37840 27.28807 24534 ft 357 kts 360°
2026-05-06 11:55 40.40316 27.28977 24042 ft 357 kts
2026-05-06 11:55 40.42854 27.29147 23654 ft 372 kts
2026-05-06 11:56 40.45444 27.29322 23304 ft 374 kts
2026-05-06 11:56 40.48055 27.29501 22600 ft 378 kts
2026-05-06 11:56 40.50685 27.29682 21810 ft 376 kts
2026-05-06 11:56 40.53258 27.29862 21418 ft 365 kts
2026-05-06 11:57 40.55774 27.30037 20930 ft 359 kts
2026-05-06 11:57 40.58240 27.30208 20428 ft 351 kts
2026-05-06 11:57 40.60647 27.30374 19952 ft 342 kts
2026-05-06 11:57 40.62999 27.30536 19472 ft 335 kts
2026-05-06 11:58 40.73107 27.31243 17672 ft 375 kts
2026-05-06 11:58 40.84244 27.36315 15684 ft 344 kts 19°
2026-05-06 11:58 40.92643 27.41657 14409 ft 347 kts 46°
2026-05-06 11:58 40.92905 27.54009 13421 ft 366 kts 109°
2026-05-06 11:59 40.87252 27.71229 12094 ft 358 kts 112°
2026-05-06 11:59 40.81700 27.94541 10346 ft 312 kts 77°
2026-05-06 11:59 40.83220 28.06816 9675 ft 289 kts 80°
2026-05-06 11:59 40.84141 28.20276 8788 ft 286 kts 81°
2026-05-06 12:00 40.84311 28.22887 8607 ft 285 kts 81°
2026-05-06 12:00 40.84481 28.25489 8444 ft 284 kts 81°
2026-05-06 12:00 40.84650 28.28087 8273 ft 284 kts 81°
2026-05-06 12:00 40.84820 28.30681 8105 ft 283 kts 81°
2026-05-06 12:01 40.84990 28.33273 7927 ft 283 kts 82°
2026-05-06 12:01 40.85159 28.35856 7759 ft 282 kts 82°
2026-05-06 12:01 40.85327 28.38435 7591 ft 281 kts 82°
2026-05-06 12:01 40.85488 28.40956 7458 ft 268 kts 82°
2026-05-06 12:02 40.85638 28.43335 7286 ft 253 kts 82°
2026-05-06 12:02 40.85735 28.44847 7139 ft 244 kts 81°
2026-05-06 12:02 40.86048 28.47039 7053 ft 246 kts 69°
2026-05-06 12:02 40.86612 28.49155 6875 ft 241 kts 67°
2026-05-06 12:03 40.87166 28.51234 6744 ft 242 kts 67°
2026-05-06 12:03 40.87718 28.53335 6589 ft 241 kts 68°
2026-05-06 12:03 40.88436 28.56097 6402 ft 240 kts 68°
2026-05-06 12:03 40.88802 28.57507 6292 ft 240 kts 68°
2026-05-06 12:04 40.89341 28.59589 6049 ft 240 kts 68°
2026-05-06 12:04 40.89884 28.61685 5714 ft 241 kts 68°
2026-05-06 12:04 40.90426 28.63780 5380 ft 241 kts 68°
2026-05-06 12:04 40.90964 28.65866 5139 ft 237 kts 68°
2026-05-06 12:05 40.91513 28.67894 5048 ft 235 kts 61°
2026-05-06 12:05 40.92507 28.69545 5002 ft 229 kts 34°
2026-05-06 12:05 40.93878 28.70590 5000 ft 228 kts 26°
2026-05-06 12:05 40.95269 28.71591 5001 ft 227 kts 27°
2026-05-06 12:06 40.96661 28.72580 4999 ft 227 kts 22°
2026-05-06 12:06 40.98141 28.73152 4998 ft 215 kts
2026-05-06 12:06 40.99597 28.73305 5002 ft 213 kts
2026-05-06 12:06 41.01099 28.73302 4999 ft 212 kts 358°
2026-05-06 12:07 41.02503 28.73273 4972 ft 198 kts 358°
2026-05-06 12:07 41.03881 28.73245 4769 ft 195 kts 358°
2026-05-06 12:07 41.05224 28.73218 4498 ft 194 kts 358°
2026-05-06 12:07 41.06536 28.73191 4226 ft 184 kts 358°
2026-05-06 12:08 41.07801 28.73165 3951 ft 175 kts 358°
2026-05-06 12:08 41.08991 28.73141 3708 ft 167 kts 359°
2026-05-06 12:08 41.10125 28.73117 3492 ft 161 kts 358°
2026-05-06 12:08 41.11218 28.73094 3283 ft 157 kts 358°
2026-05-06 12:09 41.12295 28.73072 3073 ft 152 kts 358°
2026-05-06 12:09 41.13343 28.73050 2863 ft 149 kts 358°
2026-05-06 12:09 41.14367 28.73029 2670 ft 148 kts 359°
2026-05-06 12:09 41.15374 28.73008 2490 ft 140 kts 358°
2026-05-06 12:10 41.16318 28.72988 2294 ft 131 kts 359°
2026-05-06 12:10 41.17244 28.72969 2115 ft 135 kts 358°
2026-05-06 12:10 41.18181 28.72950 1931 ft 135 kts 359°
2026-05-06 12:10 41.19119 28.72930 1750 ft 134 kts 358°
2026-05-06 12:11 41.20057 28.72911 1564 ft 135 kts 359°
2026-05-06 12:11 41.20996 28.72891 1387 ft 135 kts 359°
2026-05-06 12:11 41.21934 28.72871 1204 ft 134 kts 359°
2026-05-06 12:11 41.22850 28.72853 1020 ft 128 kts
2026-05-06 12:12 41.23747 28.72834 840 ft 130 kts
2026-05-06 12:12 41.24648 28.72811 678 ft 127 kts
2026-05-06 12:12 41.25534 28.72796 488 ft 126 kts
2026-05-06 12:12 41.26404 28.72777 335 ft 125 kts
2026-05-06 12:13 41.27145 28.72764 299 ft 79 kts 358°
2026-05-06 12:13 41.27501 28.72755 290 ft 29 kts
2026-05-06 12:13 41.27711 28.72752 281 ft 31 kts 358°
2026-05-06 12:13 41.27928 28.72766 276 ft 32 kts
2026-05-06 12:14 41.28094 28.72857 275 ft 5 kts 28°
2026-05-06 12:14 41.28095 28.72858 275 ft 1 kts 27°
2026-05-06 12:15 41.28114 28.72873 274 ft 5 kts 33°
2026-05-06 12:15 41.28137 28.72913 274 ft 5 kts 94°
2026-05-06 12:15 41.28120 28.72953 277 ft 5 kts 138°
2026-05-06 12:15 41.28086 28.72965 276 ft 6 kts 174°
2026-05-06 12:16 41.28043 28.72967 280 ft 7 kts 179°
2026-05-06 12:16 41.27991 28.72968 280 ft 8 kts 179°
2026-05-06 12:16 41.27931 28.72969 282 ft 9 kts 179°
2026-05-06 12:16 41.27865 28.72970 284 ft 10 kts 179°
2026-05-06 12:17 41.27791 28.72971 287 ft 11 kts 179°
2026-05-06 12:17 41.27712 28.72973 293 ft 12 kts 179°
2026-05-06 12:17 41.27629 28.72975 296 ft 12 kts 179°
2026-05-06 12:17 41.27540 28.72977 298 ft 13 kts 179°
2026-05-06 12:18 41.27443 28.72978 299 ft 15 kts 178°
2026-05-06 12:18 41.27336 28.72983 302 ft 16 kts 179°
2026-05-06 12:18 41.27220 28.72982 307 ft 18 kts 180°
2026-05-06 12:18 41.27094 28.72985 307 ft 19 kts 178°
2026-05-06 12:19 41.26951 28.72986 308 ft 21 kts 180°
2026-05-06 12:19 41.26872 28.73059 309 ft 10 kts 81°
2026-05-06 12:19 41.26873 28.73156 310 ft 10 kts 92°
2026-05-06 12:19 41.26868 28.73244 312 ft 9 kts 94°
2026-05-06 12:20 41.26868 28.73337 313 ft 11 kts 88°
2026-05-06 12:20 41.26871 28.73448 313 ft 13 kts 88°
2026-05-06 12:20 41.26864 28.73516 313 ft 6 kts 115°
2026-05-06 12:20 41.26824 28.73539 313 ft 8 kts 199°
2026-05-06 12:21 41.26774 28.73534 313 ft 0 kts 182°